Simultaneous Nadir Overpasses (SNOs) Predictions

Prediction of SNOs between GOES-16 and METOP-B Satellite Orbit:

Table of predicted SNOs for the next 14.0 days since TLE Epoch: 2/10/2017
Index Date Time (GOES-16) GOES-16 Lat,Lon METOP-B Lat,Lon Distance(km) Time Diff (sec)
1 02/10/2017 15:42:31 -0.00, -89.51 0.75, -92.92 388.88 80
2 02/11/2017 15:24:31 -0.00, -89.52 -0.35, -87.93 180.68 80
3 02/13/2017 03:43:32 0.00, -89.49 -0.68, -92.52 346.15 80
4 02/14/2017 03:20:12 0.01, -89.49 0.42, -87.53 223.64 80
5 02/15/2017 15:39:05 -0.00, -89.55 0.59, -92.09 290.62 80
6 02/16/2017 15:21:06 -0.01, -89.56 -0.57, -87.11 279.59 80
7 02/18/2017 03:40:05 0.00, -89.54 -0.51, -91.69 246.38 80
8 02/19/2017 03:16:47 0.01, -89.55 0.65, -86.71 323.79 80
9 02/20/2017 15:35:39 -0.00, -89.60 0.35, -91.28 190.09 80
10 02/21/2017 15:15:00 -0.01, -89.62 -0.75, -86.28 380.34 80
11 02/23/2017 03:36:40 0.00, -89.60 -0.27, -90.88 145.10 80
12 02/24/2017 03:13:21 0.01, -89.61 0.83, -85.88 425.25 80




NCC Satellite Simultaneous Nadir Overpasses (SNOs) Prediction Service
